Cloud_Cover
92 92 92 92 92 92 92 92 92 92 92 92 92 92 92 92 92 92 92 92 92 92 92 92 92 92 92 92 92 92 92 92 92 92 92 92 92 88 80 88 92 92 92 92 92 92 92 88 92 92 88 88 88 92 92 92 92 92 92 92 92 92 92 88 88 88 88 80 76
92 92 92 92 92 92 92 92 92 92 92 92 92 92 92 92 92 92 92 92 92 92 92 100 100 92 92 92 92 92 88 92 92 92 92 92 88 80 80 92 92 92 92 92 92 92 92 88 92 92 88 88 88 88 88 92 92 92 92 92 92 92 88 88 88 80 76 76 68
92 92 88 92 92 92 92 92 92 92 92 92 92 92 92 92 92 92 92 92 92 92 92 100 100 100 92 92 92 92 92 92 92 92 92 88 76 80 88 88 92 92 92 92 92 92 92 88 92 88 88 88 88 88 92 92 92 92 92 92 92 92 88 88 80 76 76 68 76
92 92 92 92 92 92 88 92 92 92 92 92 92 92 92 92 92 92 92 92 92 92 92 100 100 100 100 100 92 92 92 92 92 92 92 92 88 88 88 92 92 92 92 92 92 92 88 88 88 88 88 88 92 92 92 92 92 92 92 92 88 88 88 76 76 76 76 80 88
92 92 92 92 92 92 92 88 88 92 92 92 92 92 92 92 92 92 92 92 92 92 92 92 92 100 100 100 92 92 92 92 92 92 92 92 92 92 92 92 92 92 92 92 92 88 88 88 88 88 88 88 88 88 92 92 92 92 92 80 80 80 76 76 76 76 76 92 92
92 92 92 92 92 92 92 92 92 92 92 92 92 92 92 92 92 92 92 92 92 92 92 92 92 92 92 92 92 92 92 92 92 92 92 92 92 92 92 92 92 92 92 92 88 88 88 88 80 80 80 80 88 92 92 92 92 92 88 80 76 76 76 76 88 92 92 92 92
92 92 92 92 92 92 92 92 92 92 92 92 92 92 92 92 92 92 92 92 92 92 92 92 92 92 92 92 92 92 92 92 92 92 92 88 92 92 92 92 92 92 92 92 88 88 88 80 80 80 80 88 88 88 88 88 88 76 68 80 80 88 88 88 92 92 92 92 88
92 92 92 92 92 92 92 92 92 92 92 92 92 92 88 88 92 92 92 92 92 92 92 92 92 92 92 92 92 92 92 92 92 88 76 80 92 92 92 92 92 88 80 80 88 88 88 88 88 88 88 88 88 76 68 68 68 76 88 92 88 92 92 92 92 92 92 88 80
92 92 92 100 92 92 92 92 92 92 92 92 92 92 92 88 92 92 92 92 92 100 100 100 92 92 92 92 92 92 92 92 80 76 80 92 92 92 92 80 88 88 88 88 88 92 92 92 92 92 92 92 88 88 80 76 76 80 88 92 92 92 92 92 92 92 88 80 80
92 92 92 92 92 92 92 92 92 92 92 92 92 92 92 92 92 92 100 100 92 92 92 92 92 92 92 92 92 92 92 92 92 92 92 92 88 88 88 88 92 92 92 92 92 92 88 92 92 92 92 92 92 92 88 88 92 92 92 92 92 92 92 92 88 88 80 68 68
92 92 92 92 92 92 92 92 92 92 92 92 88 80 88 92 92 92 100 100 92 92 92 92 92 92 92 92 92 92 92 92 92 92 92 88 88 88 88 92 92 92 92 92 92 88 88 92 92 92 92 92 92 92 92 92 92 92 92 92 92 92 92 88 88 80 76 64 56
92 92 92 92 92 92 92 92 92 92 92 92 92 92 92 92 92 92 100 100 100 92 92 92 92 92 92 92 88 80 88 92 92 92 88 88 88 88 88 88 92 92 92 92 92 88 80 88 88 88 92 92 88 88 92 92 92 92 92 92 92 92 88 88 80 68 64 64 64
92 92 92 92 92 92 92 92 92 92 92 92 92 92 92 92 92 92 100 100 100 100 92 92 92 92 92 92 92 92 92 92 92 88 80 88 88 88 88 92 92 92 92 92 92 88 88 88 88 88 92 92 88 88 92 92 92 92 92 92 88 88 88 88 68 64 68 64 64
92 92 92 92 92 92 92 92 92 92 92 100 100 92 92 92 92 92 92 100 100 92 92 92 92 92 92 92 92 92 92 92 92 88 80 88 88 92 92 92 92 92 92 88 88 88 88 88 88 92 92 92 88 92 92 92 92 92 88 88 88 88 88 80 68 64 64 56 48
92 92 92 92 92 92 92 92 92 92 92 92 92 92 92 92 92 92 92 92 92 92 92 92 92 92 92 92 92 92 92 92 88 88 88 92 92 92 92 92 92 92 92 92 92 92 92 92 88 92 92 92 92 92 92 88 88 88 88 88 88 80 80 76 76 64 56 48 56
92 92 92 92 92 92 92 92 92 92 92 92 92 92 92 92 92 92 92 92 92 92 92 92 92 92 92 88 88 88 88 88 88 88 92 92 92 92 92 92 92 92 92 92 92 92 92 92 92 92 92 92 92 88 88 88 80 80 88 88 88 80 76 68 64 56 56 56 56
92 92 92 92 92 92 92 92 92 92 92 92 92 92 92 92 92 92 88 92 92 92 92 92 92 92 92 88 88 88 88 88 88 92 92 92 92 92 92 92 92 92 92 88 88 92 92 92 92 92 92 92 88 88 80 80 80 80 80 88 80 76 68 64 56 48 48 48 48
92 92 92 92 92 92 92 92 92 92 92 92 92 92 92 92 92 92 88 92 92 92 92 92 92 92 92 92 92 92 92 92 92 92 92 92 92 92 88 88 88 88 88 88 92 92 92 92 92 92 92 88 80 80 80 80 80 80 80 80 80 76 64 56 48 44 44 44 48
100 92 92 92 92 92 92 92 92 92 92 92 92 92 92 92 92 92 92 92 92 92 92 92 92 92 92 92 92 92 92 92 92 92 92 92 92 88 88 88 88 92 92 92 92 92 92 92 92 88 88 88 80 80 88 88 80 80 76 68 68 64 64 48 44 44 44 44 44
100 92 92 92 92 92 92 92 92 92 92 92 92 92 92 92 92 92 92 92 92 92 92 92 92 92 92 92 92 92 92 92 92 92 92 92 92 92 92 92 92 92 92 92 92 92 92 88 80 80 80 76 80 80 80 76 68 64 64 64 64 56 56 56 48 44 44 36 36
92 92 92 92 92 92 92 92 92 92 92 92 92 92 92 92 92 92 92 92 92 92 92 92 92 92 92 92 92 92 92 92 92 92 92 92 88 88 88 88 92 92 92 92 92 92 88 80 80 76 68 76 76 76 76 68 68 68 64 64 64 64 56 44 44 44 36 36 44
92 92 92 92 92 92 92 92 92 92 92 92 92 92 92 92 92 92 92 92 92 92 92 92 92 92 92 92 92 92 92 92 92 92 92 92 92 88 80 92 92 92 92 92 92 88 80 80 76 76 76 76 80 80 76 76 76 68 68 64 56 56 48 36 36 36 44 44 44
92 92 92 92 92 92 92 92 92 92 92 92 92 92 92 92 92 92 92 92 92 92 92 92 92 92 92 92 92 92 92 92 92 92 92 92 92 92 92 92 92 92 92 88 88 88 80 80 76 76 80 80 76 76 76 68 68 68 64 48 48 44 48 48 48 48 48 48 48
80 80 80 92 92 92 92 92 92 92 92 92 92 92 92 92 88 88 92 92 92 92 92 92 92 92 92 92 88 80 88 92 92 92 92 92 92 92 92 88 88 88 88 80 80 80 76 76 80 80 76 76 68 68 64 56 48 48 48 44 44 56 76 76 76 76 68 64 56
68 68 68 88 92 92 92 88 92 92 92 92 92 92 92 92 92 92 92 92 92 92 92 92 92 92 92 92 92 92 92 92 92 92 92 92 92 92 88 88 80 80 80 80 80 88 80 80 80 80 76 68 56 48 44 44 36 36 36 36 44 68 88 80 80 76 76 68 68
56 64 68 76 80 88 88 88 92 88 88 88 92 92 92 92 92 92 92 92 92 92 92 92 92 92 92 92 92 92 92 92 92 92 92 88 88 88 88 80 88 88 88 88 88 88 80 80 76 68 56 44 36 36 44 48 64 68 76 80 88 88 88 88 80 80 80 76 68
44 48 56 64 76 80 80 80 88 88 88 92 92 92 92 92 92 92 92 92 92 92 92 92 92 92 92 92 92 92 92 92 92 88 80 80 88 88 88 88 88 88 88 88 80 80 76 76 56 44 36 48 68 76 76 76 80 88 88 92 88 88 88 80 76 76 76 76 80
64 56 56 64 68 68 76 76 80 88 88 88 92 92 92 92 92 92 92 92 92 92 92 92 92 92 92 92 92 92 92 92 92 92 88 88 88 88 88 88 88 88 80 76 76 76 76 76 68 76 76 76 76 80 88 88 92 92 88 88 88 88 88 92 88 92 92 92 92
56 64 64 48 48 48 64 76 76 76 80 80 88 88 92 92 92 92 92 92 92 92 92 92 92 92 92 92 92 92 92 92 92 88 88 88 88 88 88 88 80 80 76 64 64 56 56 76 76 80 80 80 88 88 92 92 92 88 88 88 88 88 88 88 88 88 92 92 88
44 48 64 56 48 48 64 76 76 68 68 68 76 80 88 88 92 92 92 92 92 92 92 92 92 88 88 88 88 88 88 92 88 88 88 88 80 80 80 76 64 56 48 48 44 56 76 80 88 92 92 80 80 80 80 80 88 88 88 88 88 88 88 88 88 88 88 88 80
36 36 36 44 56 56 56 56 64 68 68 68 64 68 76 80 88 88 88 88 88 88 88 88 88 88 88 88 88 88 88 80 80 80 80 80 76 64 48 44 44 36 36 36 32 64 92 92 88 80 76 76 76 76 68 68 68 76 80 88 80 80 80 88 88 88 92 88 80
24 24 32 32 36 44 44 44 56 64 64 64 68 76 68 64 68 76 80 80 80 80 80 80 80 80 80 80 76 68 64 56 64 64 56 48 36 36 32 32 36 32 32 44 80 92 92 80 76 68 64 64 68 76 80 80 80 76 76 88 88 88 88 88 92 92 92 92 92
12 20 20 24 32 32 32 36 44 48 48 48 48 56 56 64 64 68 68 68 68 68 68 68 64 64 56 44 44 48 56 56 48 44 36 32 32 32 36 56 64 68 68 76 88 88 80 64 68 68 76 76 80 80 88 88 88 88 92 92 92 92 92 92 92 92 92 92 92
12 12 12 20 20 24 24 32 36 44 44 48 48 48 56 56 56 56 56 48 56 56 56 56 44 44 44 44 44 44 44 36 32 24 24 24 36 64 76 80 80 88 92 80 68 64 64 68 64 68 68 76 76 80 88 88 88 80 80 88 92 92 92 92 92 92 92 92 92
12 12 8 8 12 12 20 24 32 36 36 36 44 48 56 56 56 56 56 56 56 56 56 48 48 44 44 44 44 44 44 48 36 36 44 68 80 88 92 92 92 92 92 88 76 68 68 76 76 80 88 80 80 80 76 76 80 80 88 80 92 92 92 92 92 100 92 92 92
8 8 8 8 8 8 12 12 24 32 32 36 44 44 48 44 48 56 56 48 56 48 48 48 48 48 48 48 68 80 88 92 92 92 92 92 80 80 88 92 92 92 92 88 76 76 80 80 80 80 80 76 76 64 56 56 76 80 88 88 92 92 92 92 92 92 100 100 92
8 8 8 8 8 8 8 12 12 20 24 32 32 36 36 36 36 36 36 36 44 48 64 76 80 88 92 92 92 92 92 92 92 92 92 92 92 92 92 92 92 92 92 88 88 80 76 68 68 64 56 48 56 56 68 88 80 88 88 92 92 92 92 92 92 92 92 92 92
8 8 8 8 8 8 8 8 12 12 20 24 24 32 32 32 24 24 32 36 36 48 64 88 92 92 92 92 92 92 92 92 92 92 92 92 92 92 92 92 92 92 92 92 92 80 68 64 56 56 48 44 56 68 80 88 92 92 92 92 92 92 92 92 92 92 92 92 92
0 0 8 8 8 8 8 8 12 12 20 20 20 20 20 20 24 32 36 44 48 56 64 76 88 88 88 92 92 92 92 92 92 92 92 92 92 92 92 92 92 92 92 92 92 88 80 76 68 68 64 68 80 88 92 92 92 92 92 92 92 92 92 92 92 92 92 92 92
12 24 32 24 12 8 8 12 12 12 12 12 12 12 12 8 12 20 24 24 32 44 48 44 76 92 92 92 92 92 92 92 92 92 92 92 92 92 92 92 92 92 92 92 92 92 92 92 88 80 80 80 88 92 92 92 92 92 92 92 92 92 92 92 92 92 92 92 92
32 56 76 76 20 0 8 8 12 12 8 8 8 8 8 8 8 8 8 8 8 20 32 32 76 92 92 92 92 92 92 92 92 92 92 92 92 92 92 92 92 92 92 92 92 92 92 92 92 92 88 88 88 92 92 92 92 92 92 92 92 92 92 92 92 92 92 92 92